Lyndonville, VT

1:26 PM EDT on April 30, 2017 (GMT -0400)
Lyndonville

Weather History for KCDA - February, 2014

Change the Weather History Date:

Sunday, February 16, 2014

  Actual Average (K1V4) Record (K1V4)
Temperature  
Mean Temperature 14 °F -  
Max Temperature 21 °F 29 °F 53 °F (2016)
Min Temperature 7 °F 7 °F -43 °F (1943)
Degree Days  
Heating Degree Days 51    
Moisture  
Dew Point 2 °F    
Average Humidity 61    
Maximum Humidity 77    
Minimum Humidity 46    
Precipitation  
Precipitation 0.00 in - - ()
Sea Level Pressure  
Sea Level Pressure 29.74 in    
Wind  
Wind Speed 11 mph (WSW)    
Max Wind Speed 17 mph    
Max Gust Speed 33 mph    
Visibility 7 miles    
Events Snow    
Averages and records for this station are not official NWS values.
T = Trace of Precipitation, MM = Missing Value Source: NWS Daily Summary

Daily Weather History Graph

Daily Weather History Graph

Search for Another Location

Airport or City:

Trip Planner

Search our weather history database for the weather conditions in past years. The results will help you decide how hot, cold, wet, or windy it might be!

Date:

Astronomy

Feb. 16, 2014 Rise Set
Actual Time 6:46 AM EST 5:18 PM EST
Civil Twilight 6:16 AM EST 5:48 PM EST
Nautical Twilight 5:42 AM EST 6:22 PM EST
Astronomical Twilight 5:09 AM EST 6:55 PM EST
Moon 7:18 PM EST (2/16) 7:09 AM EST (2/16)
Length of Visible Light 11h 31m
Length of Day
10h 31m
Full, 97% of the Moon is Illuminated
Feb 16
Full
Feb 22
Last Quarter
Mar 1
New
Mar 8
First Quarter
Mar 16
Full

Hourly Weather History & Observations

Time (EST) Temp. Windchill Dew Point Humidity Pressure Visibility Wind Dir Wind Speed Gust Speed Precip Events Conditions
12:15 AM 21.2 °F 8.9 °F 14.7 °F 76% 29.62 in 5.0 mi NW 12.7 mph 18.4 mph N/A Snow Light Snow
12:35 AM 20.7 °F 8.2 °F 14.5 °F 77% 29.63 in 3.0 mi WNW 12.7 mph 19.6 mph N/A Snow Light Snow
12:55 AM 20.1 °F 8.1 °F 14.0 °F 77% 29.63 in 3.0 mi WNW 11.5 mph 20.7 mph N/A Snow Light Snow
1:15 AM 19.4 °F 7.9 °F 13.1 °F 76% 29.63 in 5.0 mi NW 10.4 mph - N/A Snow Light Snow
1:35 AM 19.0 °F 8.2 °F 12.2 °F 75% 29.62 in 7.0 mi NW 9.2 mph 18.4 mph N/A Snow Light Snow
1:55 AM 18.7 °F 10.6 °F 12.2 °F 76% 29.62 in 7.0 mi WNW 5.8 mph - N/A Snow Light Snow
2:15 AM 18.1 °F 8.9 °F 11.3 °F 75% 29.62 in 7.0 mi WNW 6.9 mph - N/A Snow Light Snow
2:35 AM 16.9 °F 7.4 °F 10.4 °F 76% 29.61 in 4.0 mi WNW 6.9 mph - N/A Snow Light Snow
2:55 AM 16.2 °F 5.5 °F 9.9 °F 76% 29.61 in 7.0 mi NW 8.1 mph - N/A Snow Light Snow
3:15 AM 15.4 °F 3.0 °F 9.5 °F 77% 29.61 in 3.0 mi SW 10.4 mph 16.1 mph N/A Snow Light Snow
3:35 AM 15.8 °F 2.1 °F 8.6 °F 73% 29.61 in 5.0 mi SW 12.7 mph 18.4 mph N/A Snow Light Snow
3:55 AM 15.3 °F 2.0 °F 8.6 °F 75% 29.61 in 4.0 mi SW 11.5 mph 20.7 mph N/A Snow Light Snow
4:15 AM 15.4 °F 3.8 °F 8.6 °F 74% 29.61 in 4.0 mi SW 9.2 mph - N/A Snow Light Snow
4:35 AM 15.4 °F 3.8 °F 8.4 °F 74% 29.62 in 4.0 mi SW 9.2 mph - N/A Snow Light Snow
4:55 AM 15.4 °F 3.8 °F 8.4 °F 74% 29.62 in 4.0 mi SW 9.2 mph 16.1 mph N/A Snow Light Snow
5:15 AM 14.4 °F -1.5 °F 6.4 °F 71% 29.62 in 7.0 mi SW 16.1 mph 20.7 mph N/A Snow Light Snow
5:35 AM 12.9 °F -2.8 °F 5.0 °F 71% 29.63 in 4.0 mi SW 15.0 mph 23.0 mph N/A Snow Light Snow
5:55 AM 12.2 °F -4.3 °F 4.6 °F 72% 29.63 in 3.0 mi SW 16.1 mph 24.2 mph N/A Snow Light Snow
6:15 AM 11.5 °F -0.2 °F 5.0 °F 75% 29.64 in 4.0 mi SW 8.1 mph - N/A Snow Light Snow
6:35 AM 11.1 °F -0.6 °F 4.6 °F 75% 29.65 in 4.0 mi SW 8.1 mph - N/A Snow Light Snow
6:55 AM 10.9 °F -2.6 °F 3.9 °F 73% 29.66 in 5.0 mi SW 10.4 mph - N/A Snow Light Snow
7:15 AM 10.4 °F -3.3 °F 3.2 °F 73% 29.66 in 5.0 mi SW 10.4 mph - N/A   Haze
7:35 AM 10.2 °F -4.3 °F 2.8 °F 72% 29.67 in 4.0 mi SW 11.5 mph - N/A Snow Light Snow
7:55 AM 9.5 °F -5.2 °F 2.5 °F 73% 29.67 in 4.0 mi SW 11.5 mph - N/A   Haze
8:15 AM 9.5 °F -1.5 °F 2.8 °F 74% 29.68 in 2.5 mi SW 6.9 mph - N/A   Haze
8:35 AM 9.9 °F -2.2 °F 1.9 °F 70% 29.69 in 4.0 mi SW 8.1 mph - N/A   Haze
8:55 AM 10.0 °F -2.9 °F 1.9 °F 70% 29.69 in 2.5 mi SW 9.2 mph - N/A   Haze
9:15 AM 10.4 °F -4.1 °F 2.1 °F 69% 29.69 in 4.0 mi SW 11.5 mph 17.3 mph N/A   Haze
9:35 AM 11.3 °F -4.3 °F 0.5 °F 62% 29.69 in 5.0 mi SW 13.8 mph 19.6 mph N/A   Haze
9:55 AM 11.3 °F -3.6 °F 0.1 °F 61% 29.70 in 5.0 mi SW 12.7 mph 20.7 mph N/A   Haze
10:15 AM 11.8 °F -4.8 °F 0.3 °F 60% 29.71 in 10.0 mi SW 16.1 mph 19.6 mph N/A   Scattered Clouds
10:35 AM 12.0 °F -5.1 °F 0.1 °F 59% 29.71 in 7.0 mi SW 17.3 mph 25.3 mph N/A   Clear
10:55 AM 12.2 °F -3.7 °F -0.0 °F 58% 29.72 in 2.0 mi SW 15.0 mph 33.4 mph N/A   Haze
11:15 AM 12.9 °F -1.6 °F 0.1 °F 57% 29.73 in 5.0 mi SW 12.7 mph 29.9 mph N/A   Haze
11:35 AM 12.2 °F -1.8 °F 0.5 °F 60% 29.73 in 10.0 mi SW 11.5 mph 19.6 mph N/A   Clear
11:55 AM 13.6 °F -2.4 °F 0.9 °F 57% 29.73 in 10.0 mi SW 16.1 mph 21.9 mph N/A   Scattered Clouds
12:15 PM 14.7 °F 0.1 °F 1.6 °F 56% 29.73 in 10.0 mi SW 13.8 mph 19.6 mph N/A   Scattered Clouds
12:35 PM 15.8 °F 4.2 °F 2.1 °F 55% 29.72 in 10.0 mi SW 9.2 mph 18.4 mph N/A   Mostly Cloudy
12:55 PM 16.3 °F 2.1 °F 1.8 °F 53% 29.72 in 10.0 mi SW 13.8 mph 20.7 mph N/A   Scattered Clouds
1:15 PM 16.7 °F 2.0 °F 2.5 °F 54% 29.72 in 7.0 mi SW 15.0 mph 25.3 mph N/A   Scattered Clouds
1:35 PM 16.0 °F 1.7 °F 1.8 °F 54% 29.74 in 10.0 mi SW 13.8 mph 24.2 mph N/A   Scattered Clouds
1:55 PM 16.5 °F 2.4 °F 1.2 °F 51% 29.74 in 10.0 mi SW 13.8 mph 24.2 mph N/A   Scattered Clouds
2:15 PM 16.5 °F 3.0 °F 1.6 °F 52% 29.74 in 7.0 mi SW 12.7 mph 23.0 mph N/A   Scattered Clouds
2:35 PM 16.7 °F 3.8 °F 2.1 °F 53% 29.75 in 10.0 mi SW 11.5 mph 21.9 mph N/A   Scattered Clouds
2:55 PM 17.2 °F 6.0 °F 1.8 °F 51% 29.76 in 10.0 mi SW 9.2 mph 19.6 mph N/A   Mostly Cloudy
3:15 PM 16.9 °F 4.1 °F 1.4 °F 51% 29.76 in 10.0 mi SW 11.5 mph 23.0 mph N/A   Scattered Clouds
3:35 PM 17.2 °F 5.2 °F 1.2 °F 50% 29.76 in 10.0 mi SW 10.4 mph 16.1 mph N/A   Clear
3:55 PM 17.2 °F 2.7 °F 0.1 °F 47% 29.76 in 10.0 mi SW 15.0 mph 21.9 mph N/A   Clear
4:15 PM 17.1 °F 1.5 °F -0.2 °F 47% 29.77 in 10.0 mi SW 17.3 mph 23.0 mph N/A   Clear
4:35 PM 16.7 °F 5.3 °F -0.6 °F 47% 29.77 in 10.0 mi SW 9.2 mph - N/A   Clear
4:55 PM 15.6 °F 4.9 °F -1.5 °F 47% 29.79 in 10.0 mi SW 8.1 mph - N/A   Clear
5:15 PM 14.5 °F 1.1 °F -2.2 °F 48% 29.79 in 10.0 mi SW 11.5 mph 17.3 mph N/A   Clear
5:35 PM 14.0 °F 0.5 °F -3.3 °F 46% 29.81 in 10.0 mi SW 11.5 mph 19.6 mph N/A   Clear
5:55 PM 12.9 °F 2.6 °F -4.4 °F 46% 29.82 in 10.0 mi SW 6.9 mph - N/A   Clear
6:15 PM 11.5 °F 2.1 °F -3.8 °F 50% 29.83 in 10.0 mi SW 5.8 mph - N/A   Clear
6:35 PM 11.1 °F 1.7 °F -3.3 °F 52% 29.84 in 10.0 mi SW 5.8 mph - N/A   Clear
6:55 PM 9.7 °F -2.4 °F -3.6 °F 55% 29.85 in 10.0 mi SW 8.1 mph - N/A   Clear
7:15 PM 10.0 °F -0.9 °F -3.6 °F 54% 29.86 in 10.0 mi SW 6.9 mph - N/A   Clear
7:35 PM 9.9 °F -1.1 °F -3.3 °F 55% 29.87 in 10.0 mi SW 6.9 mph - N/A   Clear
7:55 PM 9.3 °F 1.0 °F -4.0 °F 55% 29.87 in 10.0 mi SW 4.6 mph - N/A   Clear
8:15 PM 7.7 °F -3.7 °F -5.1 °F 56% 29.88 in 10.0 mi SW 6.9 mph - N/A   Clear
8:35 PM 8.6 °F 2.0 °F -5.3 °F 53% 29.88 in 10.0 mi SW 3.5 mph - N/A   Clear
8:55 PM 8.8 °F -1.1 °F -6.0 °F 51% 29.89 in 10.0 mi SW 5.8 mph - N/A   Clear
9:15 PM 8.4 °F -1.6 °F -5.8 °F 52% 29.90 in 10.0 mi SW 5.8 mph - N/A   Clear
9:35 PM 8.6 °F -1.3 °F -6.3 °F 51% 29.91 in 10.0 mi SW 5.8 mph - N/A   Clear
9:55 PM 9.0 °F -3.2 °F -6.2 °F 50% 29.91 in 10.0 mi SW 8.1 mph - N/A   Clear
10:15 PM 9.5 °F -5.2 °F -6.2 °F 49% 29.91 in 10.0 mi SW 11.5 mph - N/A   Clear
10:35 PM 9.1 °F -5.6 °F -6.2 °F 50% 29.91 in 10.0 mi SW 11.5 mph 16.1 mph N/A   Clear
10:55 PM 8.8 °F -3.5 °F -6.5 °F 50% 29.91 in 10.0 mi SW 8.1 mph 16.1 mph N/A   Clear
11:15 PM 8.6 °F -2.6 °F -6.7 °F 50% 29.92 in 10.0 mi SW 6.9 mph - N/A   Clear
11:35 PM 7.5 °F -1.1 °F -7.4 °F 51% 29.93 in 10.0 mi SW 4.6 mph - N/A   Clear
11:55 PM 7.7 °F -3.7 °F -8.1 °F 49% 29.94 in 10.0 mi SW 6.9 mph - N/A   Clear